Location: Celina Field Airport (historical)
(33.3123°N, 96.7643°W)
Time: 21:38:09
(UTC+00:00)

Daily predictions for brighter satellites

Satellite Brightness Start Highest point End
(mag) Time Altitude Azimuth Time Altitude Azimuth Time Altitude Azimuth
Cosmos 2098 Rocket 2.5 12:00:20 10° S 12:03:31 81° E 12:07:24 10° N
Cosmos 1862 3.9 12:00:19 10° S 12:04:10 58° E 12:08:03 10° NNE
Centaur D-1A AC-35 4.0 12:00:44 10° SW 12:04:43 25° S 12:07:50 10° ESE
CZ-2C R/B 2.7 12:00:14 10° S 12:05:46 69° WSW 12:11:14 10° NNW
Cosmos 1943 Rocket 2.7 12:00:51 10° SW 12:05:57 34° WNW 12:11:06 10° N
Cosmos 1782 2.7 12:02:02 10° N 12:05:59 85° W 12:09:55 10° S
Cosmos 1656 Rocket 3.9 12:03:09 10° S 12:08:30 70° ESE 12:13:53 10° NNE
Envisat 3.5 12:03:54 10° N 12:08:32 37° WNW 12:13:09 10° SW
YAOGAN 6 3.9 12:10:14 19° NW 12:10:55 20° WNW 12:13:40 10° WSW
Landsat 5 3.6 12:06:53 10° S 12:11:20 71° WSW 12:15:52 10° NNW
Cosmos 921 Rocket 4.2 12:07:56 10° N 12:12:11 45° ENE 12:16:27 10° SSE
Gbstr 26 Del rocket 4.1 12:09:12 11° NNW 12:12:38 36° NE 12:16:50 10° ESE
COSMO-SKYMED 1 2.8 12:09:14 10° S 12:13:24 48° W 12:17:37 10° NNW
CZ-3B R/B 2.9 12:14:26 10° S 12:14:57 11° S 12:15:31 10° SSE
NOAA 11 4.1 12:11:39 10° N 12:17:07 77° WNW 12:22:35 10° SSW
Meteor 1-26 Rocket 4.3 12:12:18 10° NNW 12:18:09 63° W 12:23:49 10° S
Meteor 1-31 Rocket 3.6 12:14:55 10° NNW 12:18:14 27° WNW 12:21:33 10° SW
Cosmos 1812 2.9 12:15:52 10° N 12:19:43 77° E 12:23:32 10° S
Cosmos 1151 Rocket 3.3 12:18:01 10° N 12:22:24 74° E 12:26:46 10° S
Cosmos 968 Rocket 4.0 12:18:29 10° SW 12:23:12 35° WNW 12:27:55 10° N
Cosmos 1570 Rocket 4.2 12:18:21 10° NNW 12:23:27 53° WSW 12:28:31 10° S
Hubble Space Telescope 1.8 12:21:39 10° WSW 12:25:28 37° S 12:29:17 10° ESE
Cosmos 2279 Rocket 4.2 12:19:42 10° N 12:25:55 79° E 12:32:05 10° S
Cosmos 1933 4.3 12:24:13 10° NW 12:27:32 25° W 12:30:52 10° SSW
DMSP B5D2-2 4.1 12:29:23 10° SSE 12:34:37 87° ENE 12:39:52 10° NNW
Cosmos 1634 Rocket 4.2 12:29:50 10° NNW 12:35:52 51° W 12:41:49 10° SSW
IRAS Rocket 4.2 12:30:51 10° SSE 12:36:22 83° WSW 12:41:54 10° NNW
Cosmos 1408 Rocket 3.8 12:34:44 10° S 12:39:02 72° E 12:43:19 10° N
Cosmos 1867 3.6 12:35:22 10° NNW 12:40:49 73° WSW 12:46:13 10° SSE
Cosmos 2263 4.3 12:38:11 10° SW 12:43:42 55° WNW 12:49:19 10° NNE
H-2A R/B 3.7 12:40:40 10° NNE 12:45:12 37° E 12:49:44 10° SSE
CENTAUR R/B 3.9 12:42:35 10° W 12:46:31 18° NW 12:50:54 10° N
FengYun 1-2 T 4.2 12:41:55 10° N 12:47:25 81° WNW 12:52:52 10° SSW
SMAP 3.1 23:43:28 10° SSE 23:48:01 59° ENE 23:52:36 10° N
Cosmos 2221 2.9 23:45:49 10° SSW 23:50:02 66° W 23:54:17 10° N
Cosmos 2034 Rocket 4.0 23:44:01 10° S 23:50:10 77° E 23:56:20 10° N
Cosmos 1766 Rocket 4.5 23:46:15 10° NNW 23:50:30 53° W 23:54:45 10° S
Cosmos 1833 Rocket 3.0 23:45:46 10° S 23:51:08 49° ESE 23:56:32 10° NNE
Cosmos 1777 Rocket 4.5 23:48:35 10° NNW 23:53:50 70° WSW 23:59:04 10° S
